Bluewater, NM

11:46 PM MST on February 06, 2016 (GMT -0700)
Grants-Milan Municipal

Weather History for KGNT - December, 2012

Change the Weather History Date:

Wednesday, December 12, 2012

  Actual Average Record
Temperature  
Mean Temperature 28 °F -  
Max Temperature 54 °F 46 °F 62 °F (2004)
Min Temperature 3 °F 14 °F -13 °F (1961)
Degree Days  
Heating Degree Days 36    
Moisture  
Dew Point 5 °F    
Average Humidity 48    
Maximum Humidity 82    
Minimum Humidity 15    
Precipitation  
Precipitation 0.00 in - - ()
Sea Level Pressure  
Sea Level Pressure 30.10 in    
Wind  
Wind Speed 4 mph (South)    
Max Wind Speed 8 mph    
Max Gust Speed -    
Visibility 10 miles    
Events      
Averages and records for this station are not official NWS values.
T = Trace of Precipitation, MM = Missing Value Source: NWS Daily Summary

Daily Weather History Graph

Daily Weather History Graph

Search for Another Location

Airport or City:

Trip Planner

Search our weather history database for the weather conditions in past years. The results will help you decide how hot, cold, wet, or windy it might be!

Date:

Astronomy

Dec. 12, 2012 Rise Set
Actual Time 7:11 AM MST 5:00 PM MST
Civil Twilight 6:42 AM MST 5:28 PM MST
Nautical Twilight 6:11 AM MST 6:00 PM MST
Astronomical Twilight 5:40 AM MST 6:30 PM MST
Moon 6:19 AM MST (12/12) 4:39 PM MST (12/12)
Length of Visible Light 10h 45m
Length of Day
9h 49m
Waning Crescent, 0% of the Moon is Illuminated
Dec 12
Waning Crescent
Dec 13
New
Dec 19
First Quarter
Dec 28
Full
Jan 4
Last Quarter

Hourly Weather History & Observations

Time (MST) Temp. Windchill Dew Point Humidity Pressure Visibility Wind Dir Wind Speed Gust Speed Precip Events Conditions
12:15 AM 11.5 °F - 3.7 °F 71% 30.12 in 10.0 mi Calm Calm - N/A   Clear
12:35 AM 11.5 °F 5.3 °F 4.3 °F 73% 30.11 in 10.0 mi NW 3.5 mph - N/A   Clear
12:55 AM 11.7 °F 3.7 °F 4.8 °F 74% 30.11 in 10.0 mi WNW 4.6 mph - N/A   Clear
1:15 AM 10.6 °F 4.3 °F 3.7 °F 74% 30.10 in 10.0 mi WNW 3.5 mph - N/A   Clear
1:35 AM 11.3 °F 5.1 °F 4.5 °F 74% 30.12 in 10.0 mi NNW 3.5 mph - N/A   Clear
2:15 AM 10.0 °F 0.4 °F 3.6 °F 75% 30.12 in 10.0 mi NW 5.8 mph - N/A   Clear
2:35 AM 9.5 °F 3.0 °F 2.8 °F 74% 30.12 in 10.0 mi WNW 3.5 mph - N/A   Clear
2:55 AM 8.1 °F -2.0 °F 2.1 °F 77% 30.12 in 10.0 mi NW 5.8 mph - N/A   Clear
3:15 AM 7.2 °F -3.0 °F 0.9 °F 75% 30.12 in 10.0 mi NNW 5.8 mph - N/A   Clear
3:35 AM 6.1 °F -2.8 °F 0.7 °F 78% 30.12 in 10.0 mi NNW 4.6 mph - N/A   Clear
3:55 AM 7.7 °F -2.4 °F 1.9 °F 77% 30.12 in 10.0 mi WNW 5.8 mph - N/A   Clear
4:15 AM 9.0 °F -0.9 °F 3.0 °F 77% 30.12 in 10.0 mi NW 5.8 mph - N/A   Clear
4:35 AM 8.1 °F -2.0 °F 2.5 °F 78% 30.11 in 10.0 mi NW 5.8 mph - N/A   Clear
4:55 AM 6.6 °F -3.7 °F 1.2 °F 79% 30.12 in 10.0 mi NNW 5.8 mph - N/A   Clear
5:15 AM 5.9 °F -1.1 °F 0.7 °F 79% 30.12 in 10.0 mi NW 3.5 mph - N/A   Clear
5:35 AM 6.3 °F -2.6 °F 0.9 °F 78% 30.12 in 10.0 mi NNW 4.6 mph - N/A   Clear
5:55 AM 5.7 °F -3.2 °F 0.9 °F 80% 30.12 in 10.0 mi NNW 4.6 mph - N/A   Clear
6:15 AM 4.8 °F -8.3 °F -0.2 °F 80% 30.12 in 10.0 mi NNW 8.1 mph - N/A   Clear
6:35 AM 4.5 °F -8.7 °F -0.9 °F 78% 30.11 in 10.0 mi WNW 8.1 mph - N/A   Clear
6:55 AM 6.8 °F -0.1 °F 1.4 °F 79% 30.12 in 10.0 mi NW 3.5 mph - N/A   Clear
7:15 AM 4.3 °F -2.9 °F -1.1 °F 78% 30.11 in 10.0 mi North 3.5 mph - N/A   Clear
7:35 AM 3.9 °F - -0.6 °F 82% 30.12 in 10.0 mi Calm Calm - N/A   Clear
7:55 AM 8.4 °F -0.1 °F 1.8 °F 74% 30.12 in 10.0 mi NW 4.6 mph - N/A   Clear
8:15 AM 11.8 °F - 4.1 °F 71% 30.12 in 10.0 mi Calm Calm - N/A   Clear
8:35 AM 14.2 °F 8.4 °F 4.6 °F 66% 30.13 in 10.0 mi NNW 3.5 mph - N/A   Clear
8:55 AM 16.9 °F 9.8 °F 5.9 °F 62% 30.14 in 10.0 mi North 4.6 mph - N/A   Clear
9:15 AM 19.4 °F - 7.3 °F 60% 30.15 in 10.0 mi Calm Calm - N/A   Clear
9:35 AM 22.6 °F - 7.9 °F 53% 30.14 in 10.0 mi Calm Calm - N/A   Clear
9:55 AM 26.2 °F - 8.8 °F 48% 30.14 in 10.0 mi Calm Calm - N/A   Clear
10:15 AM 28.6 °F - 9.0 °F 44% 30.14 in 10.0 mi Calm Calm - N/A   Clear
10:35 AM 32.4 °F - 8.6 °F 37% 30.13 in 10.0 mi Calm Calm - N/A   Clear
10:55 AM 36.3 °F 31.6 °F 9.1 °F 32% 30.12 in 10.0 mi SSE 5.8 mph - N/A   Clear
11:15 AM 41.0 °F 37.1 °F 9.3 °F 27% 30.11 in 10.0 mi ESE 5.8 mph - N/A   Clear
11:35 AM 42.4 °F 38.8 °F 8.6 °F 25% 30.10 in 10.0 mi SE 5.8 mph - N/A   Clear
11:55 AM 44.4 °F 41.2 °F 8.4 °F 23% 30.09 in 10.0 mi SE 5.8 mph - N/A   Clear
12:15 PM 47.7 °F - 8.6 °F 21% 30.08 in 10.0 mi SE 5.8 mph - N/A   Clear
12:35 PM 50.0 °F - 7.7 °F 18% 30.07 in 10.0 mi SSE 5.8 mph - N/A   Clear
12:55 PM 51.8 °F - 7.2 °F 17% 30.06 in 10.0 mi ESE 6.9 mph - N/A   Clear
1:15 PM 52.3 °F - 7.0 °F 16% 30.05 in 10.0 mi SSE 4.6 mph - N/A   Clear
1:35 PM 53.6 °F - 7.3 °F 16% 30.04 in 10.0 mi ESE 3.5 mph - N/A   Clear
1:55 PM 53.6 °F - 7.3 °F 16% 30.04 in 10.0 mi ESE 4.6 mph - N/A   Clear
2:15 PM 54.3 °F - 7.5 °F 15% 30.04 in 10.0 mi SE 4.6 mph - N/A   Clear
2:35 PM 54.3 °F - 7.3 °F 15% 30.04 in 10.0 mi ESE 5.8 mph - N/A   Clear
2:55 PM 53.8 °F - 7.0 °F 15% 30.04 in 10.0 mi SE 5.8 mph - N/A   Clear
3:15 PM 54.1 °F - 7.2 °F 15% 30.04 in 10.0 mi SE 6.9 mph - N/A   Clear
3:35 PM 52.3 °F - 6.8 °F 16% 30.04 in 10.0 mi SE 5.8 mph - N/A   Clear
3:55 PM 52.0 °F - 7.3 °F 17% 30.04 in 10.0 mi SE 8.1 mph - N/A   Clear
4:15 PM 49.1 °F - 7.7 °F 19% 30.04 in 10.0 mi SSE 5.8 mph - N/A   Clear
4:35 PM 46.0 °F 41.9 °F 7.7 °F 21% 30.05 in 10.0 mi SSE 8.1 mph - N/A   Clear
4:55 PM 43.5 °F 40.1 °F 7.7 °F 23% 30.06 in 10.0 mi SSE 5.8 mph - N/A   Clear
5:35 PM 38.8 °F 33.2 °F 7.3 °F 27% 30.07 in 10.0 mi SSE 8.1 mph - N/A   Clear
5:55 PM 38.5 °F 32.7 °F 6.8 °F 27% 30.07 in 10.0 mi SSE 8.1 mph - N/A   Clear
6:15 PM 39.0 °F 33.4 °F 7.3 °F 27% 30.08 in 10.0 mi SSE 8.1 mph - N/A   Clear
6:35 PM 37.2 °F 32.6 °F 7.0 °F 28% 30.09 in 10.0 mi South 5.8 mph - N/A   Clear
6:55 PM 34.7 °F 30.6 °F 6.8 °F 31% 30.10 in 10.0 mi SSW 4.6 mph - N/A   Clear
7:15 PM 33.6 °F 27.5 °F 6.6 °F 32% 30.10 in 10.0 mi South 6.9 mph - N/A   Clear
7:35 PM 30.0 °F 26.5 °F 6.1 °F 36% 30.10 in 10.0 mi South 3.5 mph - N/A   Clear
7:55 PM 28.0 °F 21.7 °F 6.1 °F 39% 30.11 in 10.0 mi SE 5.8 mph - N/A   Clear
8:15 PM 27.3 °F 19.1 °F 5.9 °F 40% 30.12 in 10.0 mi SSE 8.1 mph - N/A   Clear
8:35 PM 27.3 °F 19.9 °F 6.8 °F 42% 30.12 in 10.0 mi South 6.9 mph - N/A   Clear
8:55 PM 27.1 °F 21.8 °F 6.8 °F 42% 30.12 in 10.0 mi South 4.6 mph - N/A   Clear
9:15 PM 28.2 °F 22.0 °F 6.8 °F 40% 30.12 in 10.0 mi SSE 5.8 mph - N/A   Clear
9:35 PM 27.5 °F 21.1 °F 6.8 °F 42% 30.12 in 10.0 mi South 5.8 mph - N/A   Clear
9:55 PM 26.6 °F 21.2 °F 7.2 °F 44% 30.12 in 10.0 mi South 4.6 mph - N/A   Clear
10:15 PM 24.4 °F 17.5 °F 6.6 °F 47% 30.12 in 10.0 mi SSE 5.8 mph - N/A   Clear
10:35 PM 24.1 °F 18.2 °F 6.8 °F 48% 30.12 in 10.0 mi SSE 4.6 mph - N/A   Clear
10:55 PM 21.4 °F 13.8 °F 6.1 °F 52% 30.12 in 10.0 mi South 5.8 mph - N/A   Clear
11:15 PM 23.2 °F 16.0 °F 6.3 °F 48% 30.13 in 10.0 mi SSE 5.8 mph - N/A   Clear
11:35 PM 21.4 °F - 5.7 °F 51% 30.13 in 10.0 mi Calm Calm - N/A   Clear
11:55 PM 16.3 °F - 2.3 °F 54% 30.13 in 10.0 mi Calm Calm - N/A   Clear